This is the latest recevied weather packets stored in our database for station/object OE6JUE. If no packets are shown the sender has not sent any weather packets the latest 10 day(s).
| Time | Temp. | Humidity | Pressure | Rain* | Wind** | Luminosity | Snow |
|---|---|---|---|---|---|---|---|
| 1778142078 | 18.89° C | 51% | 1013.6 hPa | 0 mm | - | - | - |
| 1778141778 | 18.89° C | 51% | 1013.6 hPa | 0 mm | - | - | - |
| 1778141478 | 18.89° C | 51% | 1013.6 hPa | 0 mm | - | - | - |
| 1778141178 | 19.44° C | 53% | 1013.7 hPa | 0 mm | - | - | - |
| 1778140878 | 18.89° C | 54% | 1013.7 hPa | - | - | - | - |
| 1778140578 | 18.33° C | 53% | 1013.6 hPa | 0 mm | - | - | - |
| 1778140278 | 18.33° C | 57% | 1013.4 hPa | 0 mm | - | - | - |
| 1778139978 | 18.33° C | 57% | 1013.4 hPa | 0 mm | - | - | - |
| 1778139677 | 18.33° C | 57% | 1013.5 hPa | 1.27 mm | - | - | - |
| 1778139377 | 17.78° C | 58% | 1013.5 hPa | 1.27 mm | - | - | - |
| 1778139077 | 17.78° C | 59% | 1013.4 hPa | 1.27 mm | - | - | - |
| 1778138777 | 17.78° C | 59% | 1013.3 hPa | 1.27 mm | - | - | - |
| 1778138477 | 17.78° C | 60% | 1013.3 hPa | 1.27 mm | - | - | - |
| 1778138177 | 17.78° C | 61% | 1013.3 hPa | 1.27 mm | - | - | - |
| 1778137878 | 17.22° C | 69% | 1013.3 hPa | 1.27 mm | - | - | - |
| 1778137578 | 16.67° C | 68% | 1013.3 hPa | 1.27 mm | - | - | - |
| 1778137278 | 16.67° C | 70% | 1013.1 hPa | - | - | - | - |
| 1778136977 | 16.11° C | 70% | 1013.1 hPa | 1.27 mm | - | - | - |
| 1778136677 | 16.11° C | 70% | 1012.8 hPa | 1.27 mm | - | - | - |
| 1778136377 | 15.56° C | 70% | 1013 hPa | 1.27 mm | - | - | - |
| 1778136078 | 15.56° C | 71% | 1013 hPa | 0 mm | - | - | - |
| 1778135778 | 15.56° C | 72% | 1013.1 hPa | 0 mm | - | - | - |
| 1778135477 | 15° C | 73% | 1013 hPa | 0 mm | - | - | - |
| 1778135177 | 15° C | 74% | 1012.9 hPa | 0 mm | - | - | - |
| 1778134877 | 15° C | 74% | 1012.9 hPa | 0 mm | - | - | - |
* Rain latest hour (hover to see other rain measurements)
** Current wind speed in m/s (hover to see current wind gust speed)